Home   Weather   Vyšší Brod   Past weeks
Flag for Czech Republic

Past Weather in Vyšší Brod, Czech Republic — September 2015

Now
55 °F

Overcast.


Feels Like: 55 °F
Forecast: 61 / 46 °F
Wind: 2 mph from Northwest

Location: Kocelovice

Current Time: Oct 18, 2019 at 9:06:57 pm

Latest Report: Oct 18, 2019 at 8:00 pm


Visibility: 44 mi

Pressure: 29.93 "Hg

Humidity: 86%

Dew Point: 51 °F

Location of Vyšší BrodLocation

September 2015 Weather in Vyšší Brod — Graph

°F

High & Low Weather Summary for September 2015

 TemperatureHumidityPressure
High90 °F (Sep 1, 4:00 pm)100% (Sep 3, 1:00 am)30.57 "Hg (Sep 3, 1:00 am)
Low39 °F (Sep 10, 4:00 am)21% (Sep 17, 3:00 pm)29.41 "Hg (Sep 17, 3:00 pm)
Average55 °F72%30.06 "Hg
* Reported Sep 1 12:00 am — Sep 30 10:00 pm, Vyšší Brod. Weather by CustomWeather, © 2019

Note: Actual official high and low records may vary slightly from our data, if they occured in-between our weather recording intervals... More about our weather records

Advertising

Vyšší Brod Weather History for September 1, 2015

Scroll right to see more
 ConditionsComfort  
Time TempWeatherWind HumidityBarometerVisibility
12:00 am
Tue, Sep 1
76 °FMild.N/A48%29.81 "Hg12 mi
1:00 am74 °FMild.1 mph50%29.81 "Hg12 mi
2:00 am74 °FMild.2 mph50%29.80 "Hg12 mi
3:00 am72 °FMild.2 mph55%29.80 "Hg12 mi
4:00 am71 °FMild.1 mph57%29.81 "Hg12 mi
6:00 am70 °FMild.1 mph56%29.80 "Hg12 mi
7:00 am66 °FMild.1 mph67%29.82 "Hg12 mi
8:00 am72 °FPassing clouds.1 mph54%29.80 "Hg43 mi
9:00 am77 °FPassing clouds.N/A44%29.77 "Hg40 mi
10:00 am81 °FPassing clouds.N/A39%29.76 "Hg40 mi
11:00 am85 °FPassing clouds.3 mph34%29.75 "Hg37 mi
12:00 pm86 °FPassing clouds.5 mph29%29.72 "Hg37 mi
1:00 pm90 °FPassing clouds.N/A26%29.70 "Hg37 mi
2:00 pm89 °FPartly sunny.N/A26%29.68 "Hg40 mi
3:00 pm88 °FPartly sunny.N/A27%29.67 "Hg40 mi
4:00 pm90 °FPartly sunny.N/A24%29.65 "Hg40 mi
5:00 pm88 °FPartly sunny.3 mph27%29.65 "Hg43 mi
6:00 pm86 °FPartly sunny.6 mph31%29.65 "Hg40 mi
7:00 pm77 °FPartly sunny.12 mph48%29.70 "Hg14 mi
8:00 pm73 °FPassing clouds.8 mph56%29.74 "Hg16 mi
9:00 pm72 °FPassing clouds.8 mph56%29.78 "Hg16 mi
10:00 pm67 °FPassing clouds.9 mph69%29.82 "Hg19 mi
Weather by CustomWeather, © 2019

See weather overview